Regional Weather Roundup
Issued by NWS Northern Indiana

Home | Current Version | Previous Version | Graphics & Text | Print | Product List | Glossary On
Versions: 1 2 3 4 5 6 7 8 9 10 11 12 13 14 15 16 17 18 19 20 21 22 23 24 25 26 27 28 29 30 31 32 33 34 35 36 37 38 39 40 41 42 43 44 45 46 47 48 49 50
000
ASUS43 KIWX 241000
RWRIWX

KIWX WEATHER ROUNDUP
NATIONAL WEATHER SERVICE NORTHERN INDIANA
500 AM EST FRI NOV 24 2017

NOTE: "FAIR" INDICATES FEW OR NO CLOUDS BELOW 12,000 FEET WITH NO
SIGNIFICANT WEATHER AND/OR OBSTRUCTIONS TO VISIBILITY.

* THESE STATIONS ARE NOT UNDER NWS QUALITY CONTROL. THEY ALSO MAY NOT
  REPORT WEATHER SUCH AS PRECIPITATION OR FOG.

INZ001>027-241100-
NORTHERN INDIANA

CITY           SKY/WX    TMP DP  RH WIND       PRES   REMARKS
MICHIGAN CITY* CLEAR     34  27  75 S8        29.85F WCI  27
KNOX*          CLEAR     32  27  80 S7        29.86F WCI  26
SOUTH BEND     CLEAR     31  25  78 S7        29.86F WCI  24
GOSHEN         CLEAR     33  23  66 SW8       29.87S WCI  26
MONTICELLO*    CLEAR     33  23  67 S6        29.88F WCI  27
WARSAW*        CLEAR     34  25  69 SW3       29.87F
AUBURN*        CLEAR     30  23  74 CALM      29.88F
FORT WAYNE     CLEAR     31  25  78 S8        29.90F WCI  23
PERU/GRISSOM   CLEAR     32  25  75 S8        29.88F WCI  25

$$
INZ028>050-241100-
CENTRAL INDIANA

CITY           SKY/WX    TMP DP  RH WIND       PRES   REMARKS
LAFAYETTE      CLEAR     31  24  75 CALM      29.90F
KOKOMO*        CLEAR     31  25  78 S7        29.90F WCI  24
MUNCIE*        CLEAR     35  23  61 S6        29.92F WCI  30
INDIANAPOLIS   CLOUDY    34  23  64 S9        29.93F WCI  27

$$
MIZ043>046-050>051-056>058-064>065-071>073-077>080-241100-
SOUTHWEST LOWER MICHIGAN

CITY           SKY/WX    TMP DP  RH WIND       PRES   REMARKS
BATTLE CREEK   CLEAR     31  24  75 S8        29.84F WCI  23
BENTON HARBOR  CLEAR     34  25  69 S8        29.83F WCI  27
COLDWATER*     CLEAR     33  22  65 SW6       29.85F WCI  28
HILLSDALE*     CLEAR     32  23  69 S7        29.84F WCI  26
HOLLAND        CLEAR     33  27  78 S8        29.81F WCI  26
GRAND RAPIDS   CLEAR     33  27  78 S7        29.80F WCI  27
KALAMAZOO      CLEAR     31  23  72 S9        29.84F WCI  23
STURGIS*       CLEAR     30  24  80 SW8       29.85S WCI  22
THREE RIVERS*  FAIR      32  26  77 SW5       29.86S WCI  27

$$
OHZ001>008-015>018-024>025-241100-
NORTHWEST OHIO

CITY           SKY/WX    TMP DP  RH WIND       PRES   REMARKS
DEFIANCE       CLEAR     30  22  72 S5        29.90F WCI  25
FINDLAY        CLEAR     31  24  75 S10       29.92F WCI  22
TOLEDO EXPRESS CLEAR     31  26  82 S6        29.90F WCI  25
TOLEDO METCALF CLEAR     30  24  78 S8        29.92F WCI  22
LIMA           CLEAR     31  24  75 S10       29.92F WCI  22

$$
AND FOR LAKE MICHIGAN COASTAL AND OPEN LAKE BUOY OBSERVATIONS

STATION/POSITION TEMP    WIND        PRES    VSBY  WAVE
                 AIR SEA DIR/SP/G                  HT/PER
                 (F)     (DEG/KT/KT) (MB)    (MI)  (FT/S)
CALUMET HARBOR    35     200/  6/  9 1009.5F
MICHIGAN CITY     35     170/ 12/ 14   N/A
BURNS HARBOR      35     190/ 11/ 14 1010.8F
SAINT JOSEPH      35     160/  5/  9 1011.5
SOUTH LAKE BUOY   45 47  220/ 17/ 21 1009.3          3/ 4

$$
&&




USA.gov is the U.S. government's official web portal to all federal, state and local government web resources and services.